Content
SEND FEEDBACK

Daily
Averages
Monthly
Summary
Switzerland

GENEVA, SWITZERLAND


Home > Europe > Switzerland
Elevation: 1364 feet     Latitude: 46 15N     Longitude: 006 08E

WEATHER
 
SELECT A DAY
Number of Records: 306,355;   Date Range: 7/1/96 - 9/20/14
 
SHARE

PRINT THIS DATA

[ ← Previous Day ]
WEATHER ALMANAC - OCTOBER 1, 2013
[ Next Day → ]
[ °C ]   °F
Weather ElementAverageHighLow
Temperature61.9 °F68 °F (1:20 pm)57.2 °F (7:50 am)
Dewpoint58 °F60.8 °F (12:20 am)53.6 °F (2:50 pm)
Humidity86.8 %100 % (12:20 am)55 % (3:00 pm)
Barometer29.82 in29.89 in (9:20 pm)29.77 in (1:00 am)
Wind Speed2.4 mph5.8 mph (7:20 am)
Weather ElementAverage
Visibility5.8 mi
Wind DirectionENE (74.6 °)

Weather ElementTotal
Precipitation---
Heating Degree Days2.4 (Base 65)
Growing Degree Days12.6 (Base 50)
Averaged from 65 records on October 1, 2013
WEATHER CONDITIONS BREAKOUT
WIND DIRECTION BREAKOUT
WEATHER BY HOUR - OCTOBER 1, 2013
[ °C ]   °F
Local TimeTemperatureDewpointHumidityBarometerVisibilityWind DirectionWind SpeedGust SpeedPrecipitationEventsConditions
12:20 AM60.8 °F60.8 °F100 %29.80 in5.6 miCalmRainLight Rain Showers
12:50 AM60.8 °F60.8 °F100 %29.80 in6.2 miCalmMostly Cloudy
1:00 AM60.0 °F59.0 °F95 %29.77 inNE (40°)2.3 mph
1:20 AM59.0 °F59.0 °F100 %29.80 in5.6 miCalmFogShallow Fog
1:50 AM59.0 °F59.0 °F100 %29.80 in4.3 miVariable2.3 mphMostly Cloudy
2:00 AM60.0 °F59.0 °F94 %29.77 in4.0 miNorth (350°)2.3 mphMist
2:20 AM59.0 °F59.0 °F100 %29.80 in6.2 miVariable1.2 mphMostly Cloudy
2:50 AM59.0 °F59.0 °F100 %29.80 in4.3 miVariable2.3 mphMostly Cloudy
3:00 AM60.0 °F59.0 °F94 %29.78 inNorth (350°)2.3 mph
3:50 AM59.0 °F59.0 °F100 %29.77 in5.0 miCalmLight Drizzle
4:00 AM60.0 °F58.0 °F92 %29.77 inNorth (350°)1.2 mph
4:20 AM59.0 °F59.0 °F100 %29.77 in4.3 miCalmMostly Cloudy
4:50 AM59.0 °F59.0 °F100 %29.80 in5.0 miCalmMostly Cloudy
5:20 AM59.0 °F59.0 °F100 %29.80 in4.3 miCalmMostly Cloudy
5:50 AM59.0 °F59.0 °F100 %29.80 in3.7 miVariable1.2 mphMostly Cloudy
6:00 AM60.0 °F58.0 °F91 %29.78 inWSW (250°)2.3 mph
6:20 AM59.0 °F59.0 °F100 %29.80 in6.2 miWSW (240°)2.3 mphOvercast
6:50 AM59.0 °F59.0 °F100 %29.80 in6.2 miSW (230°)3.5 mphMostly Cloudy
7:00 AM59.0 °F57.0 °F91 %29.78 inSW (230°)4.6 mph
7:20 AM59.0 °F59.0 °F100 %29.80 in4.3 miSW (230°)5.8 mphMostly Cloudy
7:50 AM57.2 °F57.2 °F100 %29.80 in4.3 miSW (230°)2.3 mphMostly Cloudy
8:20 AM57.2 °F57.2 °F100 %29.80 in3.7 miWSW (240°)3.5 mphMostly Cloudy
8:50 AM59.0 °F57.2 °F94 %29.83 in4.3 miWSW (250°)4.6 mphMostly Cloudy
9:00 AM59.0 °F56.0 °F88 %29.81 inWest (260°)3.5 mph
9:20 AM59.0 °F59.0 °F100 %29.83 in5.6 miVariable3.5 mphMostly Cloudy
9:50 AM62.6 °F59.0 °F88 %29.83 in6.2 miSouth (190°)3.5 mphMostly Cloudy
10:00 AM60.0 °F57.0 °F85 %29.81 inSW (220°)3.5 mph
10:20 AM62.6 °F59.0 °F88 %29.83 in6.2 miVariable2.3 mphMostly Cloudy
10:50 AM62.6 °F57.2 °F82 %29.83 in6.2 miVariable2.3 mphMostly Cloudy
11:20 AM64.4 °F57.2 °F77 %29.83 in6.2 miVariable1.2 mphMostly Cloudy
11:50 AM64.4 °F59.0 °F83 %29.83 in6.2 miVariable1.2 mphMostly Cloudy
12:00 PM63.0 °F56.0 °F72 %29.80 inNNE (20°)1.2 mph
12:20 PM64.4 °F59.0 °F83 %29.83 in6.2 miVariable2.3 mphMostly Cloudy
12:50 PM66.2 °F57.2 °F73 %29.83 in6.2 miVariable2.3 mphMostly Cloudy
1:00 PM65.0 °F58.0 °F70 %29.80 inESE (110°)4.6 mph
1:20 PM68.0 °F59.0 °F73 %29.83 in6.2 miVariable2.3 mphMostly Cloudy
1:50 PM68.0 °F59.0 °F73 %29.83 in6.2 miENE (70°)5.8 mphMostly Cloudy
2:00 PM66.0 °F55.0 °F60 %29.79 in14.0 miENE (60°)5.8 mphScattered Clouds
2:20 PM68.0 °F55.4 °F64 %29.80 in6.2 miVariable3.5 mphMostly Cloudy
2:50 PM68.0 °F53.6 °F60 %29.80 in6.2 miVariable3.5 mphMostly Cloudy
3:00 PM67.0 °F54.0 °F55 %29.77 inNNE (30°)3.5 mph
3:20 PM68.0 °F57.2 °F68 %29.80 in6.2 miVariable1.2 mphMostly Cloudy
3:50 PM68.0 °F57.2 °F68 %29.80 in6.2 miEast (100°)4.6 mphMostly Cloudy
4:00 PM66.0 °F57.0 °F64 %29.78 inENE (60°)4.6 mph
4:20 PM68.0 °F59.0 °F73 %29.80 in6.2 miEast (90°)4.6 mphMostly Cloudy
4:50 PM66.2 °F59.0 °F78 %29.83 in6.2 miEast (80°)4.6 mphMostly Cloudy
5:20 PM66.2 °F57.2 °F73 %29.83 in6.2 miENE (60°)3.5 mphMostly Cloudy
5:50 PM66.2 °F57.2 °F73 %29.83 in6.2 miNorth (10°)2.3 mphMostly Cloudy
6:00 PM65.0 °F57.0 °F69 %29.80 inNorth (10°)3.5 mph
6:20 PM66.2 °F59.0 °F78 %29.83 in6.2 miVariable1.2 mphOvercast
6:50 PM64.4 °F59.0 °F83 %29.83 in6.2 miNE (40°)2.3 mphOvercast
7:00 PM64.0 °F58.0 °F75 %29.81 inNNE (20°)2.3 mph
7:20 PM62.6 °F59.0 °F88 %29.83 in6.2 miNE (50°)1.2 mphMostly Cloudy
7:50 PM62.6 °F59.0 °F88 %29.86 in6.2 miCalmMostly Cloudy
8:00 PM61.0 °F57.0 °F83 %29.84 in11.0 miNNW (330°)2.3 mphScattered Clouds
8:20 PM60.8 °F59.0 °F94 %29.86 inCalmClear
8:50 PM59.0 °F59.0 °F100 %29.86 inVariable2.3 mphClear
9:00 PM59.0 °F57.0 °F91 %29.86 inNorth1.2 mph
9:20 PM59.0 °F57.2 °F94 %29.89 in6.2 miVariable2.3 mphScattered Clouds
9:50 PM57.2 °F57.2 °F100 %29.89 in6.2 miVariable3.5 mphScattered Clouds
10:00 PM59.0 °F56.0 °F88 %29.87 inNE (50°)3.5 mph
10:20 PM59.0 °F59.0 °F100 %29.89 in6.2 miVariable2.3 mphScattered Clouds
10:50 PM57.2 °F57.2 °F100 %29.89 in5.0 miVariable2.3 mphScattered Clouds
11:20 PM59.0 °F57.2 °F94 %29.89 in3.7 miVariable1.2 mphScattered Clouds
11:50 PM59.0 °F57.2 °F94 %29.89 in4.3 miCalmMostly Cloudy
Hourly data recorded from LSGG, located miles away from Geneva, Switzerland







STORIES FROM OUR PARTNERS